�������r�C�����j�^�v���󋵏��
Date,Time,5�C6���@���p�r�C��,����,����(m/s)
2021/05/13,00:00,4.0,��쐼,7.7
2021/05/13,00:10,3.8,��,7.7
2021/05/13,00:20,4.0,��,7.8
2021/05/13,00:30,4.0,��,8.3
2021/05/13,00:40,3.8,��,8.9
2021/05/13,00:50,4.0,��,9.8
2021/05/13,01:00,3.9,��,9.5
2021/05/13,01:10,4.0,��,8.9
2021/05/13,01:20,3.9,��,7.8
2021/05/13,01:30,3.9,��,7.8
2021/05/13,01:40,4.0,��,8.3
2021/05/13,01:50,3.8,��,8.1
2021/05/13,02:00,4.0,��,6.9
2021/05/13,02:10,4.0,��,6.2
2021/05/13,02:20,3.9,��,6.9
2021/05/13,02:30,3.8,��,7.6
2021/05/13,02:40,4.0,��,7.4
2021/05/13,02:50,4.1,��,7.3
2021/05/13,03:00,3.8,��,7.9
2021/05/13,03:10,3.9,��,6.7
2021/05/13,03:20,4.0,��,7.7
2021/05/13,03:30,3.9,��,8.6
2021/05/13,03:40,3.9,��,8.0
2021/05/13,03:50,3.9,��,7.4
2021/05/13,04:00,3.8,��,6.6
2021/05/13,04:10,3.9,��,6.1
2021/05/13,04:20,3.8,��,6.6
2021/05/13,04:30,3.8,��,6.7
2021/05/13,04:40,3.9,��,6.7
2021/05/13,04:50,3.9,��,7.6
2021/05/13,05:00,3.7,��,7.5
2021/05/13,05:10,3.8,��,7.7
2021/05/13,05:20,3.9,��,6.9
2021/05/13,05:30,3.6,��,5.9
2021/05/13,05:40,3.8,��,5.5
2021/05/13,05:50,3.7,��,5.5
2021/05/13,06:00,3.9,��,4.3
2021/05/13,06:10,3.7,��,4.6
2021/05/13,06:20,3.8,��,4.3
2021/05/13,06:30,4.0,��,4.0
2021/05/13,06:40,3.8,��,4.0
2021/05/13,06:50,3.9,��,5.2
2021/05/13,07:00,3.9,��,5.5
2021/05/13,07:10,4.0,��,6.5
2021/05/13,07:20,3.9,��,7.1
2021/05/13,07:30,4.0,��,9.2
2021/05/13,07:40,3.9,��,8.0
2021/05/13,07:50,3.9,��,8.3
2021/05/13,08:00,3.7,��,7.8
2021/05/13,08:10,3.8,��,7.7
2021/05/13,08:20,3.8,��,8.2
2021/05/13,08:30,3.9,��,5.2
2021/05/13,08:40,4.0,��,4.6
2021/05/13,08:50,4.0,��쓌,6.0
2021/05/13,09:00,4.0,��쓌,5.6
2021/05/13,09:10,3.8,��,6.6
2021/05/13,09:20,3.8,��,5.5
2021/05/13,09:30,4.0,��,6.2
2021/05/13,09:40,3.8,��,4.4
2021/05/13,09:50,3.9,��쐼,5.3
2021/05/13,10:00,3.8,��,5.7
2021/05/13,10:10,3.9,��,5.4
2021/05/13,10:20,3.9,��,5.6
2021/05/13,10:30,3.8,��,6.1
2021/05/13,10:40,3.9,��,6.8
2021/05/13,10:50,4.0,��,7.4
2021/05/13,11:00,3.8,��,7.0
2021/05/13,11:10,3.9,��,7.1
2021/05/13,11:20,3.8,��,4.3
2021/05/13,11:30,3.9,��,6.9
2021/05/13,11:40,3.9,��,6.4
2021/05/13,11:50,4.0,��,6.3
2021/05/13,12:00,3.9,��,6.9
2021/05/13,12:10,3.9,��,7.3
2021/05/13,12:20,3.9,��,6.7
2021/05/13,12:30,4.0,��쐼,6.4
2021/05/13,12:40,4.1,��,7.1
2021/05/13,12:50,4.0,��쐼,7.3
2021/05/13,13:00,4.0,��,6.7
2021/05/13,13:10,3.9,��,8.1
2021/05/13,13:20,4.0,��쐼,7.3
2021/05/13,13:30,4.0,��,7.9
2021/05/13,13:40,4.0,��,9.2
2021/05/13,13:50,3.9,��,8.0
2021/05/13,14:00,3.8,��,8.6
2021/05/13,14:10,3.9,��,6.2
2021/05/13,14:20,3.6,��,9.2
2021/05/13,14:30,3.9,��쓌,9.8
2021/05/13,14:40,3.9,��쓌,9.4
2021/05/13,14:50,4.0,��쓌,8.0
2021/05/13,15:00,3.9,��쓌,8.3
2021/05/13,15:10,4.0,��,8.6
2021/05/13,15:20,3.8,��,8.3
2021/05/13,15:30,3.9,��,8.4
2021/05/13,15:40,3.9,��쐼,5.8
2021/05/13,15:50,3.9,��,8.3
2021/05/13,16:00,3.9,��,7.6
2021/05/13,16:10,3.9,��,6.6
2021/05/13,16:20,3.9,��,6.3
2021/05/13,16:30,3.9,��,5.7
2021/05/13,16:40,4.0,��쐼,4.3
2021/05/13,16:50,3.9,��,7.0
2021/05/13,17:00,4.0,��쐼,4.5
2021/05/13,17:10,3.9,��,4.0
2021/05/13,17:20,4.0,��쓌,4.9
2021/05/13,17:30,3.9,��쓌,5.7
2021/05/13,17:40,4.0,��쓌,6.1
2021/05/13,17:50,3.9,��쓌,5.7
2021/05/13,18:00,3.8,��,6.1
2021/05/13,18:10,3.9,��,6.1
2021/05/13,18:20,4.0,��,6.7
2021/05/13,18:30,3.9,��,6.6
2021/05/13,18:40,3.8,��,6.2
2021/05/13,18:50,3.9,��,5.8
2021/05/13,19:00,3.9,��,7.1
2021/05/13,19:10,4.0,��,7.6
2021/05/13,19:20,3.9,��,6.4
2021/05/13,19:30,4.0,��쓌,7.1
2021/05/13,19:40,3.8,��,7.5
2021/05/13,19:50,4.1,��,7.9
2021/05/13,20:00,3.7,��,6.2
2021/05/13,20:10,4.0,��,5.9
2021/05/13,20:20,3.9,��,6.5
2021/05/13,20:30,3.8,��,6.1
2021/05/13,20:40,3.6,��,5.8
2021/05/13,20:50,3.9,��,6.5
2021/05/13,21:00,3.8,��,6.6
2021/05/13,21:10,3.8,��,4.8
2021/05/13,21:20,3.9,��,5.0
2021/05/13,21:30,3.9,��,5.2
2021/05/13,21:40,4.0,��,5.4
2021/05/13,21:50,3.9,��,6.1
2021/05/13,22:00,4.0,��쐼,5.8
2021/05/13,22:10,3.9,��,6.6
2021/05/13,22:20,3.9,��쐼,5.8
2021/05/13,22:30,3.8,��쐼,5.7
2021/05/13,22:40,3.9,��쐼,4.4
2021/05/13,22:50,3.9,��쐼,4.5
2021/05/13,23:00,3.8,��쐼,4.7
2021/05/13,23:10,3.9,��쐼,4.4
2021/05/13,23:20,3.8,��쐼,4.6
2021/05/13,23:30,4.0,��쐼,4.6
2021/05/13,23:40,4.0,��쐼,4.4
2021/05/13,23:50,3.9,��,5.1
